Location: Unspecified
(58.9933°N, 5.6375°E)
Time: 10:24:10
(UTC+02:00)

CZ-3 Stage 3 - Visible Passes

Search period start: 02 October 2014 00:00
Search period end: 12 October 2014 00:00
Orbit: 411 x 34833 km, 30.8° (Epoch: 29 September)

Date Brightness Start Highest point End Pass type
(mag) Time Alt. Az. Time Alt. Az. Time Alt. Az.
02 Oct 7.6 05:25:30 10° SSW 08:10:40 28° S 08:24:31 10° SE visible
03 Oct 8.2 01:32:41 10° SSE 04:14:16 24° SSE 04:46:34 10° ESE visible
05 Oct 7.6 05:13:09 10° SSW 08:07:47 29° SSW 08:21:29 10° SE visible
06 Oct 8.1 01:15:54 10° SSE 04:11:39 25° SSE 04:44:08 10° ESE visible
08 Oct 7.5 04:59:57 10° SSW 08:04:43 29° SSW 08:18:18 10° SE visible
09 Oct 8.1 00:59:14 10° SSE 04:08:51 26° SSE 04:41:26 10° ESE visible
11 Oct 7.4 04:45:49 10° SSW 08:01:27 30° SSW 08:14:56 10° SE visible
